Time,TemperatureF,DewpointF,PressureIn,WindDirection,WindDirectionDegrees,WindSpeedMPH,WindSpeedGustMPH,Humidity,HourlyPrecipIn,Conditions,Clouds,dailyrainin,SoftwareType,DateUTC
2013-08-05 00:00:00,78.5,76.6,30.05,East,85,0.0,1.0,94,0.00,,---,0.20,VWS V15.00,2013-08-05 04:00:00,
2013-08-05 00:01:00,78.2,76.3,30.05,SSE,151,0.0,0.0,94,0.00,,---,0.20,VWS V14.01,2013-08-05 04:01:00,
2013-08-05 00:02:00,78.2,76.3,30.05,SSE,152,0.0,0.0,94,0.00,,---,0.00,VWS V14.01,2013-08-05 04:02:00,
2013-08-05 00:04:00,78.2,76.3,30.05,SSE,152,0.0,0.0,94,0.00,,---,0.00,VWS V14.01,2013-08-05 04:04:00,
2013-08-05 00:05:00,78.2,76.3,30.05,SSE,152,0.0,0.0,94,0.00,,---,0.00,VWS V14.01,2013-08-05 04:05:00,
2013-08-05 00:10:00,78.0,76.1,30.05,SSE,151,0.0,0.0,94,0.00,,---,0.00,VWS V14.01,2013-08-05 04:10:00,
2013-08-05 00:15:00,77.9,76.0,30.05,SSE,151,0.0,0.0,94,0.00,,---,0.00,VWS V14.01,2013-08-05 04:15:00,
2013-08-05 00:20:00,77.9,76.4,30.05,SSE,151,0.0,0.0,95,0.00,,---,0.00,VWS V14.01,2013-08-05 04:20:00,
2013-08-05 00:25:00,77.9,76.4,30.05,SSE,151,0.0,0.0,95,0.00,,---,0.00,VWS V14.01,2013-08-05 04:25:00,
2013-08-05 00:30:00,78.4,76.5,30.06,SSE,151,0.0,1.0,94,0.00,,---,0.20,VWS V15.00,2013-08-05 04:30:00,
2013-08-05 00:31:00,77.8,76.6,30.05,SSE,152,0.0,0.0,96,0.00,,---,0.00,VWS V14.01,2013-08-05 04:31:00,
2013-08-05 00:36:00,77.6,76.1,30.05,SSE,151,0.0,0.0,95,0.00,,---,0.00,VWS V14.01,2013-08-05 04:36:00,
2013-08-05 00:41:00,77.6,76.4,30.05,SSE,151,0.0,0.0,96,0.00,,---,0.00,VWS V14.01,2013-08-05 04:41:00,
2013-08-05 00:45:00,78.4,76.5,30.05,SSE,151,0.0,0.0,94,0.00,,---,0.20,VWS V15.00,2013-08-05 04:45:00,
2013-08-05 00:46:00,77.5,76.3,30.05,SSE,152,0.0,0.0,96,0.00,,---,0.00,VWS V14.01,2013-08-05 04:46:00,
2013-08-05 00:51:00,77.5,76.3,30.05,SSE,151,0.0,0.0,96,0.00,,---,0.00,VWS V14.01,2013-08-05 04:51:00,
2013-08-05 00:56:00,77.5,76.3,30.05,SSE,152,0.0,0.0,96,0.00,,---,0.00,VWS V14.01,2013-08-05 04:56:00,
2013-08-05 01:00:00,78.2,76.3,30.05,SSE,151,0.0,0.0,94,0.00,,---,0.20,VWS V15.00,2013-08-05 05:00:00,
2013-08-05 01:01:00,77.4,76.2,30.05,SSE,151,0.0,0.0,96,0.00,,---,0.00,VWS V14.01,2013-08-05 05:01:00,
2013-08-05 01:06:00,77.3,76.1,30.05,SSE,151,0.0,0.0,96,0.00,,---,0.00,VWS V14.01,2013-08-05 05:06:00,
2013-08-05 01:11:00,77.2,76.0,30.05,SSE,152,0.0,0.0,96,0.00,,---,0.00,VWS V14.01,2013-08-05 05:11:00,
2013-08-05 01:15:00,77.9,76.0,30.05,SSE,151,0.0,0.0,94,0.00,,---,0.00,VWS V15.00,2013-08-05 05:15:00,
2013-08-05 01:16:00,77.4,76.2,30.05,SSE,151,0.0,0.0,96,0.00,,---,0.00,VWS V14.01,2013-08-05 05:16:00,
2013-08-05 01:21:00,77.5,76.3,30.05,SSE,151,0.0,0.0,96,0.00,,---,0.00,VWS V14.01,2013-08-05 05:21:00,
2013-08-05 01:26:00,77.5,76.0,30.05,NW,324,0.0,1.0,95,0.00,,---,0.00,VWS V14.01,2013-08-05 05:26:00,
2013-08-05 01:30:00,77.8,76.6,30.05,SSE,151,0.0,0.0,96,0.00,,---,0.00,VWS V15.00,2013-08-05 05:30:00,
2013-08-05 01:31:00,77.6,76.1,30.04,NW,324,0.0,0.0,95,0.00,,---,0.00,VWS V14.01,2013-08-05 05:31:00,
2013-08-05 01:37:00,77.5,76.0,30.05,NW,324,0.0,0.0,95,0.00,,---,0.00,VWS V14.01,2013-08-05 05:37:00,
2013-08-05 01:42:00,77.7,76.2,30.04,NW,324,0.0,0.0,95,0.00,,---,0.00,VWS V14.01,2013-08-05 05:42:00,
2013-08-05 01:45:00,77.5,76.3,30.05,SSE,151,0.0,0.0,96,0.00,,---,0.00,VWS V15.00,2013-08-05 05:45:00,
2013-08-05 01:47:00,77.7,76.2,30.04,NW,324,0.0,0.0,95,0.00,,---,0.00,VWS V14.01,2013-08-05 05:47:00,
2013-08-05 01:52:00,77.7,76.2,30.04,NW,324,0.0,0.0,95,0.00,,---,0.00,VWS V14.01,2013-08-05 05:52:00,
2013-08-05 01:57:00,77.7,76.2,30.04,NW,324,0.0,0.0,95,0.00,,---,0.00,VWS V14.01,2013-08-05 05:57:00,
2013-08-05 02:00:00,77.4,76.2,30.05,SSE,152,0.0,0.0,96,0.00,,---,0.00,VWS V15.00,2013-08-05 06:00:00,
2013-08-05 02:02:00,77.6,76.1,30.04,NW,324,0.0,0.0,95,0.00,,---,0.00,VWS V14.01,2013-08-05 06:02:00,
2013-08-05 02:07:00,77.6,76.1,30.03,NW,324,0.0,0.0,95,0.00,,---,0.00,VWS V14.01,2013-08-05 06:07:00,
2013-08-05 02:11:00,77.5,76.0,30.03,NW,324,0.0,0.0,95,0.00,,---,0.00,VWS V14.01,2013-08-05 06:11:00,
2013-08-05 02:15:00,77.4,76.2,30.05,SSE,152,0.0,0.0,96,0.00,,---,0.00,VWS V15.00,2013-08-05 06:15:00,
2013-08-05 02:17:00,77.4,76.2,30.03,NW,324,0.0,0.0,96,0.00,,---,0.00,VWS V14.01,2013-08-05 06:17:00,
2013-08-05 02:22:00,77.5,76.0,30.03,NW,324,0.0,0.0,95,0.00,,---,0.00,VWS V14.01,2013-08-05 06:22:00,
2013-08-05 02:27:00,77.6,76.1,30.03,SW,214,0.0,1.0,95,0.00,,---,0.00,VWS V14.01,2013-08-05 06:27:00,
2013-08-05 02:30:00,77.6,76.1,30.05,NW,324,0.0,1.0,95,0.00,,---,0.00,VWS V15.00,2013-08-05 06:30:00,
2013-08-05 02:31:00,77.6,75.7,30.03,SW,214,0.0,0.0,94,0.00,,---,0.00,VWS V14.01,2013-08-05 06:31:00,
2013-08-05 02:37:00,77.6,76.1,30.03,SW,214,0.0,1.0,95,0.00,,---,0.00,VWS V14.01,2013-08-05 06:37:00,
2013-08-05 02:42:00,77.5,75.6,30.02,SW,214,0.0,1.0,94,0.00,,---,0.00,VWS V14.01,2013-08-05 06:42:00,
2013-08-05 02:45:00,77.7,76.2,30.04,NW,324,0.0,0.0,95,0.00,,---,0.00,VWS V15.00,2013-08-05 06:45:00,
2013-08-05 02:47:00,77.5,75.6,30.02,SW,214,0.0,0.0,94,0.00,,---,0.00,VWS V14.01,2013-08-05 06:47:00,
2013-08-05 02:52:00,77.5,75.6,30.01,SW,214,0.0,0.0,94,0.00,,---,0.00,VWS V14.01,2013-08-05 06:52:00,
2013-08-05 02:57:00,77.5,75.6,30.01,SW,214,0.0,0.0,94,0.00,,---,0.00,VWS V14.01,2013-08-05 06:57:00,
2013-08-05 03:00:00,77.7,76.2,30.04,NW,324,0.0,0.0,95,0.00,,---,0.00,VWS V15.00,2013-08-05 07:00:00,
2013-08-05 03:02:00,77.4,75.5,30.01,SW,214,0.0,0.0,94,0.00,,---,0.00,VWS V14.01,2013-08-05 07:02:00,
2013-08-05 03:07:00,77.4,75.9,30.01,SW,214,0.0,0.0,95,0.00,,---,0.00,VWS V14.01,2013-08-05 07:07:00,
2013-08-05 03:12:00,77.3,75.8,30.01,SW,214,0.0,0.0,95,0.00,,---,0.00,VWS V14.01,2013-08-05 07:12:00,
2013-08-05 03:15:00,77.5,76.3,30.03,NW,324,0.0,0.0,96,0.00,,---,0.00,VWS V15.00,2013-08-05 07:15:00,
2013-08-05 03:17:00,77.3,75.8,30.01,SW,214,0.0,0.0,95,0.00,,---,0.00,VWS V14.01,2013-08-05 07:17:00,
2013-08-05 03:22:00,77.2,76.0,30.01,SW,214,0.0,0.0,96,0.00,,---,0.00,VWS V14.01,2013-08-05 07:22:00,
2013-08-05 03:27:00,77.1,75.6,30.01,SW,214,0.0,0.0,95,0.00,,---,0.00,VWS V14.01,2013-08-05 07:27:00,
2013-08-05 03:30:00,77.6,75.7,30.03,SW,214,0.0,1.0,94,0.00,,---,0.00,VWS V15.00,2013-08-05 07:30:00,
2013-08-05 03:32:00,77.1,75.9,30.00,SW,214,0.0,0.0,96,0.00,,---,0.00,VWS V14.01,2013-08-05 07:32:00,
2013-08-05 03:37:00,77.2,76.0,30.00,SW,214,0.0,0.0,96,0.00,,---,0.00,VWS V14.01,2013-08-05 07:37:00,
2013-08-05 03:42:00,77.2,76.0,30.01,SW,214,0.0,0.0,96,0.00,,---,0.00,VWS V14.01,2013-08-05 07:42:00,
2013-08-05 03:45:00,77.5,75.6,30.02,SW,214,0.0,1.0,94,0.00,,---,0.00,VWS V15.00,2013-08-05 07:45:00,
2013-08-05 03:48:00,77.2,75.7,30.00,SW,214,0.0,0.0,95,0.00,,---,0.00,VWS V14.01,2013-08-05 07:48:00,
2013-08-05 03:53:00,77.2,75.7,30.00,SW,214,0.0,0.0,95,0.00,,---,0.00,VWS V14.01,2013-08-05 07:53:00,
2013-08-05 03:58:00,77.4,75.9,30.00,SW,214,0.0,0.0,95,0.00,,---,0.00,VWS V14.01,2013-08-05 07:58:00,
2013-08-05 04:00:00,77.4,75.5,30.01,SW,214,0.0,0.0,94,0.00,,---,0.00,VWS V15.00,2013-08-05 08:00:00,
2013-08-05 04:03:00,77.3,75.8,30.00,SW,214,0.0,0.0,95,0.00,,---,0.00,VWS V14.01,2013-08-05 08:03:00,
2013-08-05 04:07:00,77.4,76.2,30.00,SW,214,0.0,0.0,96,0.00,,---,0.00,VWS V14.01,2013-08-05 08:07:00,
2013-08-05 04:13:00,77.3,75.8,30.00,SW,214,0.0,0.0,95,0.00,,---,0.00,VWS V14.01,2013-08-05 08:13:00,
2013-08-05 04:15:00,77.3,75.8,30.01,SW,214,0.0,0.0,95,0.00,,---,0.00,VWS V15.00,2013-08-05 08:15:00,
2013-08-05 04:18:00,77.3,75.8,30.00,SW,214,0.0,0.0,95,0.00,,---,0.00,VWS V14.01,2013-08-05 08:18:00,
2013-08-05 04:23:00,77.2,75.7,30.00,SW,214,0.0,0.0,95,0.00,,---,0.00,VWS V14.01,2013-08-05 08:23:00,
2013-08-05 04:28:00,77.2,75.7,30.00,SW,214,0.0,0.0,95,0.00,,---,0.00,VWS V14.01,2013-08-05 08:28:00,
2013-08-05 04:30:00,77.1,75.9,30.01,SW,214,0.0,0.0,96,0.00,,---,0.00,VWS V15.00,2013-08-05 08:30:00,
2013-08-05 04:33:00,77.2,76.0,30.00,SW,214,0.0,0.0,96,0.00,,---,0.00,VWS V14.01,2013-08-05 08:33:00,
2013-08-05 04:38:00,77.1,75.9,30.00,SW,214,0.0,0.0,96,0.00,,---,0.00,VWS V14.01,2013-08-05 08:38:00,
2013-08-05 04:43:00,77.0,75.8,29.99,SW,214,0.0,0.0,96,0.00,,---,0.00,VWS V14.01,2013-08-05 08:43:00,
2013-08-05 04:45:00,77.2,75.7,30.01,SW,214,0.0,0.0,95,0.00,,---,0.00,VWS V15.00,2013-08-05 08:45:00,
2013-08-05 04:48:00,77.0,75.8,30.00,SW,214,0.0,0.0,96,0.00,,---,0.00,VWS V14.01,2013-08-05 08:48:00,
2013-08-05 04:53:00,76.8,75.6,29.99,SW,214,0.0,0.0,96,0.00,,---,0.00,VWS V14.01,2013-08-05 08:53:00,
2013-08-05 04:58:00,76.8,75.6,29.99,SW,214,0.0,0.0,96,0.00,,---,0.00,VWS V14.01,2013-08-05 08:58:00,
2013-08-05 05:00:00,77.3,75.8,30.00,SW,214,0.0,0.0,95,0.00,,---,0.00,VWS V15.00,2013-08-05 09:00:00,
2013-08-05 05:03:00,76.8,75.9,29.99,SW,214,0.0,0.0,97,0.00,,---,0.00,VWS V14.01,2013-08-05 09:03:00,
2013-08-05 05:09:00,77.0,76.1,29.99,SW,214,0.0,0.0,97,0.00,,---,0.00,VWS V14.01,2013-08-05 09:09:00,
2013-08-05 05:14:00,77.1,76.2,29.99,SW,214,0.0,0.0,97,0.00,,---,0.00,VWS V14.01,2013-08-05 09:14:00,
2013-08-05 05:15:00,77.3,75.8,30.00,SW,214,0.0,0.0,95,0.00,,---,0.00,VWS V15.00,2013-08-05 09:15:00,
2013-08-05 05:19:00,77.0,76.1,30.00,SW,214,0.0,0.0,97,0.00,,---,0.00,VWS V14.01,2013-08-05 09:19:00,
2013-08-05 05:24:00,77.2,76.3,29.99,SW,214,0.0,0.0,97,0.00,,---,0.00,VWS V14.01,2013-08-05 09:24:00,
2013-08-05 05:30:00,77.3,76.1,30.00,SW,214,0.0,1.0,96,0.00,,---,0.00,VWS V14.01,2013-08-05 09:30:00,
2013-08-05 05:35:00,77.3,76.1,30.00,SW,214,0.0,0.0,96,0.00,,---,0.00,VWS V14.01,2013-08-05 09:35:00,
2013-08-05 05:40:00,77.2,76.0,30.00,SW,214,0.0,0.0,96,0.00,,---,0.00,VWS V14.01,2013-08-05 09:40:00,
2013-08-05 05:45:00,77.0,75.8,29.99,SW,214,0.0,0.0,96,0.00,,---,0.00,VWS V15.00,2013-08-05 09:45:00,
2013-08-05 05:46:00,77.1,75.9,30.00,SW,214,0.0,0.0,96,0.00,,---,0.00,VWS V14.01,2013-08-05 09:46:00,
2013-08-05 05:51:00,77.0,75.8,30.00,SW,214,0.0,0.0,96,0.00,,---,0.00,VWS V14.01,2013-08-05 09:51:00,
2013-08-05 05:57:00,76.8,75.6,30.00,SW,214,0.0,0.0,96,0.00,,---,0.00,VWS V14.01,2013-08-05 09:57:00,
2013-08-05 06:00:00,76.9,76.0,29.99,SW,214,0.0,0.0,97,0.00,,---,0.00,VWS V15.00,2013-08-05 10:00:00,
2013-08-05 06:01:00,76.8,75.9,30.00,SW,214,0.0,0.0,97,0.00,,---,0.00,VWS V14.01,2013-08-05 10:01:00,
2013-08-05 06:07:00,76.8,75.9,30.00,SW,214,0.0,0.0,97,0.00,,---,0.00,VWS V14.01,2013-08-05 10:07:00,
2013-08-05 06:12:00,76.9,76.3,30.01,SW,214,0.0,0.0,98,0.00,,---,0.00,VWS V14.01,2013-08-05 10:12:00,
2013-08-05 06:15:00,77.0,76.1,29.99,SW,214,0.0,0.0,97,0.00,,---,0.00,VWS V15.00,2013-08-05 10:15:00,
2013-08-05 06:17:00,77.0,76.4,30.00,SW,214,0.0,0.0,98,0.00,,---,0.00,VWS V14.01,2013-08-05 10:17:00,
2013-08-05 06:23:00,77.0,76.4,30.01,SW,214,0.0,0.0,98,0.00,,---,0.00,VWS V14.01,2013-08-05 10:23:00,
2013-08-05 06:28:00,77.0,76.4,30.01,SW,214,0.0,0.0,98,0.00,,---,0.00,VWS V14.01,2013-08-05 10:28:00,
2013-08-05 06:30:00,77.3,76.1,29.99,SW,214,0.0,1.0,96,0.00,,---,0.00,VWS V15.00,2013-08-05 10:30:00,
2013-08-05 06:34:00,77.0,76.4,30.01,SW,214,0.0,0.0,98,0.00,,---,0.00,VWS V14.01,2013-08-05 10:34:00,
2013-08-05 06:39:00,77.0,76.4,30.01,SW,214,0.0,0.0,98,0.00,,---,0.00,VWS V14.01,2013-08-05 10:39:00,
2013-08-05 06:45:00,76.8,76.2,30.02,SW,214,0.0,0.0,98,0.00,,---,0.00,VWS V14.01,2013-08-05 10:45:00,
2013-08-05 06:51:00,77.0,76.4,30.02,SW,214,0.0,1.0,98,0.00,,---,0.00,VWS V14.01,2013-08-05 10:51:00,
2013-08-05 06:56:00,77.0,76.4,30.02,SW,214,0.0,1.0,98,0.00,,---,0.00,VWS V14.01,2013-08-05 10:56:00,
2013-08-05 07:00:00,76.8,75.9,30.00,SW,214,0.0,0.0,97,0.00,,---,0.00,VWS V15.00,2013-08-05 11:00:00,
2013-08-05 07:01:00,77.1,76.5,30.02,SW,214,0.0,1.0,98,0.00,,---,0.00,VWS V14.01,2013-08-05 11:01:00,
2013-08-05 07:06:00,77.1,76.5,30.02,SW,214,0.0,0.0,98,0.00,,---,0.00,VWS V14.01,2013-08-05 11:06:00,
2013-08-05 07:10:00,77.1,76.5,30.02,SW,214,0.0,0.0,98,0.00,,---,0.00,VWS V14.01,2013-08-05 11:10:00,
2013-08-05 07:15:00,77.0,76.4,30.01,SW,214,0.0,0.0,98,0.00,,---,0.00,VWS V15.00,2013-08-05 11:15:00,
2013-08-05 07:16:00,77.3,76.7,30.02,SW,214,0.0,0.0,98,0.00,,---,0.00,VWS V14.01,2013-08-05 11:16:00,
2013-08-05 07:22:00,77.8,77.5,30.03,SW,214,0.0,0.0,99,0.00,,---,0.00,VWS V14.01,2013-08-05 11:22:00,
2013-08-05 07:27:00,78.9,78.6,30.02,SW,214,0.0,0.0,99,0.00,,---,0.00,VWS V14.01,2013-08-05 11:27:00,
2013-08-05 07:30:00,77.0,76.4,30.01,SW,214,0.0,0.0,98,0.00,,---,0.00,VWS V15.00,2013-08-05 11:30:00,
2013-08-05 07:33:00,79.8,79.5,30.02,SW,214,0.0,0.0,99,0.00,,---,0.00,VWS V14.01,2013-08-05 11:33:00,
2013-08-05 07:38:00,80.6,80.0,30.02,SW,214,0.0,0.0,98,0.00,,---,0.00,VWS V14.01,2013-08-05 11:38:00,
2013-08-05 07:44:00,81.3,79.7,30.02,SW,214,0.0,0.0,95,0.00,,---,0.00,VWS V14.01,2013-08-05 11:44:00,
2013-08-05 07:45:00,76.8,76.2,30.02,SW,214,0.0,0.0,98,0.00,,---,0.00,VWS V15.00,2013-08-05 11:45:00,
2013-08-05 07:48:00,82.0,80.1,30.03,SW,214,0.0,0.0,94,0.00,,---,0.00,VWS V14.01,2013-08-05 11:48:00,
2013-08-05 07:54:00,82.2,80.0,30.03,WSW,239,0.0,1.0,93,0.00,,---,0.00,VWS V14.01,2013-08-05 11:54:00,
2013-08-05 08:00:00,82.2,80.3,30.03,WSW,239,0.0,1.0,94,0.00,,---,0.00,VWS V14.01,2013-08-05 12:00:00,
2013-08-05 08:05:00,82.7,80.5,30.03,WSW,239,0.0,1.0,93,0.00,,---,0.00,VWS V14.01,2013-08-05 12:05:00,
2013-08-05 08:10:00,83.0,80.8,30.03,WSW,239,0.0,1.0,93,0.00,,---,0.00,VWS V14.01,2013-08-05 12:10:00,
2013-08-05 08:15:00,83.1,80.9,30.03,WSW,239,0.0,1.0,93,0.00,,---,0.00,VWS V14.01,2013-08-05 12:15:00,
2013-08-05 08:20:00,83.2,80.6,30.03,WNW,285,0.0,1.0,92,0.00,,---,0.00,VWS V14.01,2013-08-05 12:20:00,
2013-08-05 08:25:00,83.2,80.0,30.03,West,281,0.0,2.0,90,0.00,,---,0.00,VWS V14.01,2013-08-05 12:25:00,
2013-08-05 08:30:00,83.2,79.6,30.04,NW,321,0.0,2.0,89,0.00,,---,0.00,VWS V14.01,2013-08-05 12:30:00,
2013-08-05 08:35:00,83.2,79.6,30.04,WNW,300,1.0,3.0,89,0.00,,---,0.00,VWS V14.01,2013-08-05 12:35:00,
2013-08-05 08:42:00,83.2,80.0,30.04,NW,313,1.0,3.0,90,0.00,,---,0.00,VWS V14.01,2013-08-05 12:42:00,
2013-08-05 08:45:00,81.7,80.1,30.02,SW,214,0.0,0.0,95,0.00,,---,0.00,VWS V15.00,2013-08-05 12:45:00,
2013-08-05 08:47:00,83.3,79.4,30.04,NW,314,0.0,2.0,88,0.00,,---,0.00,VWS V14.01,2013-08-05 12:47:00,
2013-08-05 08:52:00,83.5,79.6,30.04,NW,322,1.0,2.0,88,0.00,,---,0.00,VWS V14.01,2013-08-05 12:52:00,
2013-08-05 08:58:00,83.8,79.9,30.04,West,259,1.0,2.0,88,0.00,,---,0.00,VWS V14.01,2013-08-05 12:58:00,
2013-08-05 09:00:00,82.3,80.4,30.03,WSW,239,0.0,1.0,94,0.00,,---,0.00,VWS V15.00,2013-08-05 13:00:00,
2013-08-05 09:03:00,84.0,79.4,30.05,NW,322,0.0,4.0,86,0.00,,---,0.00,VWS V14.01,2013-08-05 13:03:00,
2013-08-05 09:08:00,84.6,79.6,30.04,NNW,335,1.0,4.0,85,0.00,,---,0.00,VWS V14.01,2013-08-05 13:08:00,
2013-08-05 09:13:00,85.2,79.8,30.05,NW,313,1.0,5.0,84,0.00,,---,0.00,VWS V14.01,2013-08-05 13:13:00,
2013-08-05 09:15:00,83.1,80.9,30.03,WSW,239,0.0,1.0,93,0.00,,---,0.00,VWS V15.00,2013-08-05 13:15:00,
2013-08-05 09:19:00,85.4,79.7,30.05,NW,317,2.0,5.0,83,0.00,,---,0.00,VWS V14.01,2013-08-05 13:19:00,
2013-08-05 09:24:00,85.3,79.2,30.04,North,6,3.0,5.0,82,0.00,,---,0.00,VWS V14.01,2013-08-05 13:24:00,
2013-08-05 09:29:00,85.5,79.8,30.04,NNW,328,1.0,5.0,83,0.00,,---,0.00,VWS V14.01,2013-08-05 13:29:00,
2013-08-05 09:30:00,83.2,79.6,30.04,NW,319,1.0,2.0,89,0.00,,---,0.00,VWS V15.00,2013-08-05 13:30:00,
2013-08-05 09:34:00,85.7,79.6,30.05,NW,314,2.0,4.0,82,0.00,,---,0.00,VWS V14.01,2013-08-05 13:34:00,
2013-08-05 09:39:00,85.9,79.4,30.04,NW,318,1.0,6.0,81,0.00,,---,0.00,VWS V14.01,2013-08-05 13:39:00,
2013-08-05 09:44:00,86.7,80.2,30.04,NW,313,1.0,6.0,81,0.00,,---,0.00,VWS V14.01,2013-08-05 13:44:00,
2013-08-05 09:45:00,83.3,79.4,30.04,NW,304,1.0,3.0,88,0.00,,---,0.00,VWS V15.00,2013-08-05 13:45:00,
2013-08-05 09:50:00,86.6,78.9,30.04,WNW,283,1.0,4.0,78,0.00,,---,0.00,VWS V14.01,2013-08-05 13:50:00,
2013-08-05 09:55:00,86.0,79.5,30.04,NNW,332,1.0,4.0,81,0.00,,---,0.00,VWS V14.01,2013-08-05 13:55:00,
2013-08-05 10:00:00,85.9,79.0,30.04,WNW,290,0.0,4.0,80,0.00,,---,0.00,VWS V14.01,2013-08-05 14:00:00,
2013-08-05 10:06:00,86.5,78.8,30.04,WNW,288,1.0,6.0,78,0.00,,---,0.00,VWS V14.01,2013-08-05 14:06:00,
2013-08-05 10:11:00,87.0,79.3,30.04,NW,320,2.0,6.0,78,0.00,,---,0.00,VWS V14.01,2013-08-05 14:11:00,
2013-08-05 10:15:00,85.4,79.7,30.05,WNW,297,1.0,5.0,83,0.00,,---,0.00,VWS V15.00,2013-08-05 14:15:00,
2013-08-05 10:16:00,87.6,79.5,30.04,NW,317,2.0,2.0,77,0.00,,---,0.00,VWS V14.01,2013-08-05 14:16:00,
2013-08-05 10:22:00,87.8,78.9,30.04,West,261,3.0,5.0,75,0.00,,---,0.00,VWS V14.01,2013-08-05 14:22:00,
2013-08-05 10:27:00,87.0,78.5,30.04,SW,234,2.0,5.0,76,0.00,,---,0.00,VWS V14.01,2013-08-05 14:27:00,
2013-08-05 10:30:00,85.5,79.8,30.05,NW,306,0.0,5.0,83,0.00,,---,0.00,VWS V15.00,2013-08-05 14:30:00,
2013-08-05 10:33:00,87.5,79.4,30.04,NNW,330,0.0,3.0,77,0.00,,---,0.00,VWS V14.01,2013-08-05 14:33:00,
2013-08-05 10:38:00,88.4,80.7,30.03,West,276,4.0,5.0,78,0.00,,---,0.00,VWS V14.01,2013-08-05 14:38:00,
2013-08-05 10:43:00,89.2,79.8,30.04,West,281,2.0,5.0,74,0.00,,---,0.00,VWS V14.01,2013-08-05 14:43:00,
2013-08-05 10:45:00,86.9,80.0,30.05,NW,323,1.0,6.0,80,0.00,,---,0.00,VWS V15.00,2013-08-05 14:45:00,
2013-08-05 10:48:00,88.6,78.8,30.04,West,278,2.0,9.0,73,0.00,,---,0.00,VWS V14.01,2013-08-05 14:48:00,
2013-08-05 10:54:00,87.6,79.1,30.04,NW,309,2.0,9.0,76,0.00,,---,0.00,VWS V14.01,2013-08-05 14:54:00,
2013-08-05 10:58:00,86.7,78.2,30.04,NW,309,1.0,9.0,76,0.00,,---,0.00,VWS V14.01,2013-08-05 14:58:00,
2013-08-05 11:00:00,86.0,79.5,30.04,NW,319,1.0,4.0,81,0.00,,---,0.00,VWS V15.00,2013-08-05 15:00:00,
2013-08-05 11:04:00,86.2,78.2,30.05,WNW,298,2.0,5.0,77,0.00,,---,0.00,VWS V14.01,2013-08-05 15:04:00,
2013-08-05 11:09:00,85.7,78.1,30.05,NW,316,2.0,6.0,78,0.00,,---,0.00,VWS V14.01,2013-08-05 15:09:00,
2013-08-05 11:15:00,85.4,78.5,30.05,NW,321,1.0,6.0,80,0.00,,---,0.00,VWS V14.01,2013-08-05 15:15:00,
2013-08-05 11:20:00,85.6,78.7,30.05,NNE,27,1.0,4.0,80,0.00,,---,0.00,VWS V14.01,2013-08-05 15:20:00,
2013-08-05 11:25:00,85.7,78.1,30.05,NNW,334,1.0,4.0,78,0.00,,---,0.00,VWS V14.01,2013-08-05 15:25:00,
2013-08-05 11:30:00,86.0,77.9,30.05,WNW,298,2.0,5.0,77,0.00,,---,0.00,VWS V14.01,2013-08-05 15:30:00,
2013-08-05 11:35:00,86.0,78.3,30.05,NW,317,2.0,5.0,78,0.00,,---,0.00,VWS V14.01,2013-08-05 15:35:00,
2013-08-05 11:40:00,86.5,78.8,30.04,NW,315,4.0,5.0,78,0.00,,---,0.00,VWS V14.01,2013-08-05 15:40:00,
2013-08-05 11:45:00,89.1,79.3,30.04,WNW,293,2.0,5.0,73,0.00,,---,0.00,VWS V15.00,2013-08-05 15:45:00,
2013-08-05 11:46:00,86.3,78.6,30.05,NW,313,1.0,5.0,78,0.00,,---,0.00,VWS V14.01,2013-08-05 15:46:00,
2013-08-05 11:52:00,86.2,77.8,30.05,NW,314,1.0,3.0,76,0.00,,---,0.00,VWS V14.01,2013-08-05 15:52:00,
2013-08-05 11:57:00,86.3,77.0,30.04,NW,310,1.0,5.0,74,0.00,,---,0.00,VWS V14.01,2013-08-05 15:57:00,
2013-08-05 12:00:00,86.4,77.9,30.05,NW,313,3.0,9.0,76,0.00,,---,0.00,VWS V15.00,2013-08-05 16:00:00,
2013-08-05 12:03:00,86.9,77.2,30.04,NW,319,2.0,4.0,73,0.00,,---,0.00,VWS V14.01,2013-08-05 16:03:00,
2013-08-05 12:08:00,87.6,77.5,30.04,WNW,295,1.0,4.0,72,0.00,,---,0.00,VWS V14.01,2013-08-05 16:08:00,
2013-08-05 12:13:00,88.1,77.5,30.04,NW,307,3.0,4.0,71,0.00,,---,0.00,VWS V14.01,2013-08-05 16:13:00,
2013-08-05 12:15:00,85.4,78.9,30.05,NW,321,0.0,6.0,81,0.00,,---,0.00,VWS V15.00,2013-08-05 16:15:00,
2013-08-05 12:18:00,88.3,78.6,30.03,WSW,249,1.0,2.0,73,0.00,,---,0.00,VWS V14.01,2013-08-05 16:18:00,
2013-08-05 12:23:00,88.8,78.2,30.04,NNE,21,3.0,5.0,71,0.00,,---,0.00,VWS V14.01,2013-08-05 16:23:00,
2013-08-05 12:29:00,88.7,77.7,30.03,West,261,0.0,5.0,70,0.00,,---,0.00,VWS V14.01,2013-08-05 16:29:00,
2013-08-05 12:30:00,86.0,77.9,30.05,NW,314,1.0,5.0,77,0.00,,---,0.00,VWS V15.00,2013-08-05 16:30:00,
2013-08-05 12:35:00,89.6,78.1,30.03,West,263,1.0,5.0,69,0.00,,---,0.00,VWS V14.01,2013-08-05 16:35:00,
2013-08-05 12:40:00,90.1,78.1,30.03,NW,321,0.0,5.0,68,0.00,,---,0.00,VWS V14.01,2013-08-05 16:40:00,
2013-08-05 12:45:00,90.5,77.1,30.03,WSW,252,5.0,6.0,65,0.00,,---,0.00,VWS V14.01,2013-08-05 16:45:00,
2013-08-05 12:51:00,90.4,77.0,30.03,WNW,291,1.0,7.0,65,0.00,,---,0.00,VWS V14.01,2013-08-05 16:51:00,
2013-08-05 12:56:00,90.6,77.2,30.03,WSW,254,2.0,13.0,65,0.00,,---,0.00,VWS V14.01,2013-08-05 16:56:00,
2013-08-05 13:00:00,86.8,77.5,30.04,North,8,1.0,5.0,74,0.00,,---,0.00,VWS V15.00,2013-08-05 17:00:00,
2013-08-05 13:02:00,90.6,76.8,30.03,WNW,298,1.0,7.0,64,0.00,,---,0.00,VWS V14.01,2013-08-05 17:02:00,
2013-08-05 13:07:00,90.1,78.1,30.03,WSW,252,5.0,7.0,68,0.00,,---,0.00,VWS V14.01,2013-08-05 17:07:00,
2013-08-05 13:12:00,89.7,76.8,30.02,NW,309,0.0,7.0,66,0.00,,---,0.00,VWS V14.01,2013-08-05 17:12:00,
2013-08-05 13:15:00,88.2,77.2,30.04,NW,315,2.0,4.0,70,0.00,,---,0.00,VWS V15.00,2013-08-05 17:15:00,
2013-08-05 13:19:00,89.4,76.6,30.02,WNW,286,2.0,6.0,66,0.00,,---,0.00,VWS V14.01,2013-08-05 17:19:00,
2013-08-05 13:23:00,89.3,76.0,30.02,West,271,1.0,6.0,65,0.00,,---,0.00,VWS V14.01,2013-08-05 17:23:00,
2013-08-05 13:29:00,89.4,77.0,30.02,WNW,283,0.0,6.0,67,0.00,,---,0.00,VWS V14.01,2013-08-05 17:29:00,
2013-08-05 13:30:00,88.9,78.3,30.03,West,261,0.0,5.0,71,0.00,,---,0.00,VWS V15.00,2013-08-05 17:30:00,
2013-08-05 13:34:00,89.5,77.6,30.02,WNW,298,0.0,5.0,68,0.00,,---,0.00,VWS V14.01,2013-08-05 17:34:00,
2013-08-05 13:39:00,89.8,76.5,30.02,WNW,297,3.0,5.0,65,0.00,,---,0.00,VWS V14.01,2013-08-05 17:39:00,
2013-08-05 13:44:00,89.9,77.5,30.02,WSW,239,2.0,5.0,67,0.00,,---,0.00,VWS V14.01,2013-08-05 17:44:00,
2013-08-05 13:45:00,90.4,77.0,30.03,NNW,331,2.0,7.0,65,0.00,,---,0.00,VWS V15.00,2013-08-05 17:45:00,
2013-08-05 13:49:00,91.1,77.2,30.02,NNW,329,0.0,3.0,64,0.00,,---,0.00,VWS V14.01,2013-08-05 17:49:00,
2013-08-05 13:55:00,91.4,77.5,30.01,NW,317,1.0,6.0,64,0.00,,---,0.00,VWS V14.01,2013-08-05 17:55:00,
2013-08-05 14:00:00,91.7,75.8,30.01,WNW,296,2.0,6.0,60,0.00,,---,0.00,VWS V14.01,2013-08-05 18:00:00,
2013-08-05 14:05:00,91.6,77.7,30.01,West,276,2.0,4.0,64,0.00,,---,0.00,VWS V14.01,2013-08-05 18:05:00,
2013-08-05 14:10:00,92.1,77.2,30.00,SW,219,2.0,6.0,62,0.00,,---,0.00,VWS V14.01,2013-08-05 18:10:00,
2013-08-05 14:15:00,92.2,75.3,30.00,WNW,291,1.0,6.0,58,0.00,,---,0.00,VWS V14.01,2013-08-05 18:15:00,
2013-08-05 14:20:00,92.4,76.0,30.00,West,277,3.0,5.0,59,0.00,,---,0.00,VWS V14.01,2013-08-05 18:20:00,
2013-08-05 14:26:00,92.5,75.6,30.00,WSW,239,2.0,10.0,58,0.00,,---,0.00,VWS V14.01,2013-08-05 18:26:00,
2013-08-05 14:30:00,89.4,77.0,30.03,West,269,0.0,6.0,67,0.00,,---,0.00,VWS V15.00,2013-08-05 18:30:00,
2013-08-05 14:31:00,92.2,75.3,30.01,South,175,7.0,11.0,58,0.00,,---,0.00,VWS V14.01,2013-08-05 18:31:00,
2013-08-05 14:37:00,91.6,77.2,30.01,NW,312,6.0,11.0,63,0.00,,---,0.00,VWS V14.01,2013-08-05 18:37:00,
2013-08-05 14:43:00,89.3,76.9,30.00,WNW,292,3.0,11.0,67,0.00,,---,0.00,VWS V14.01,2013-08-05 18:43:00,
2013-08-05 14:45:00,90.1,77.2,30.02,WNW,295,0.0,5.0,66,0.00,,---,0.00,VWS V15.00,2013-08-05 18:45:00,
2013-08-05 14:48:00,87.8,75.5,30.00,NW,323,3.0,10.0,67,0.00,,---,0.00,VWS V14.01,2013-08-05 18:48:00,
2013-08-05 14:53:00,87.3,75.9,30.00,NW,319,8.0,12.0,69,0.00,,---,0.00,VWS V14.01,2013-08-05 18:53:00,
2013-08-05 14:59:00,86.7,75.3,30.00,West,267,4.0,12.0,69,0.00,,---,0.00,VWS V14.01,2013-08-05 18:59:00,
2013-08-05 15:00:00,91.6,76.2,30.01,NNW,330,2.0,6.0,61,0.00,,---,0.00,VWS V15.00,2013-08-05 19:00:00,
2013-08-05 15:04:00,86.1,76.0,30.00,West,264,5.0,9.0,72,0.00,,---,0.00,VWS V14.01,2013-08-05 19:04:00,
2013-08-05 15:09:00,84.9,75.3,30.00,NW,316,5.0,9.0,73,0.00,,---,0.00,VWS V14.01,2013-08-05 19:09:00,
2013-08-05 15:15:00,83.7,74.5,30.00,West,278,2.0,9.0,74,0.00,,---,0.00,VWS V14.01,2013-08-05 19:15:00,
2013-08-05 15:20:00,83.3,75.3,30.00,WNW,294,3.0,10.0,77,0.00,,---,0.00,VWS V14.01,2013-08-05 19:20:00,
2013-08-05 15:25:00,82.2,75.0,30.00,WNW,303,2.0,10.0,79,0.00,,---,0.00,VWS V14.01,2013-08-05 19:25:00,
2013-08-05 15:30:00,81.7,75.3,29.99,WNW,301,1.0,10.0,81,0.00,,---,0.00,VWS V14.01,2013-08-05 19:30:00,
2013-08-05 15:35:00,81.8,75.8,29.99,WSW,250,3.0,6.0,82,0.00,,---,0.00,VWS V14.01,2013-08-05 19:35:00,
2013-08-05 15:42:00,81.2,75.9,29.99,NW,309,2.0,6.0,84,0.00,,---,0.00,VWS V14.01,2013-08-05 19:42:00,
2013-08-05 15:45:00,88.3,76.0,30.00,West,263,6.0,12.0,67,0.00,,---,0.00,VWS V15.00,2013-08-05 19:45:00,
2013-08-05 15:47:00,81.0,75.7,29.99,West,276,1.0,4.0,84,0.00,,---,0.00,VWS V14.01,2013-08-05 19:47:00,
2013-08-05 15:52:00,81.2,76.6,29.99,SW,233,0.0,4.0,86,0.00,,---,0.00,VWS V14.01,2013-08-05 19:52:00,
2013-08-05 15:57:00,81.7,77.5,29.99,West,278,0.0,4.0,87,0.01,,---,0.01,VWS V14.01,2013-08-05 19:57:00,
2013-08-05 16:00:00,86.3,75.4,30.00,WNW,301,1.0,12.0,70,0.00,,---,0.00,VWS V15.00,2013-08-05 20:00:00,
2013-08-05 16:03:00,82.6,78.0,30.00,West,267,1.0,3.0,86,0.01,,---,0.01,VWS V14.01,2013-08-05 20:03:00,
2013-08-05 16:08:00,84.3,80.7,29.99,WSW,238,0.0,4.0,89,0.01,,---,0.01,VWS V14.01,2013-08-05 20:08:00,
2013-08-05 16:13:00,85.9,79.0,29.98,WNW,294,1.0,5.0,80,0.01,,---,0.01,VWS V14.01,2013-08-05 20:13:00,
2013-08-05 16:15:00,83.7,74.5,30.00,WNW,291,5.0,9.0,74,0.00,,---,0.00,VWS V15.00,2013-08-05 20:15:00,
2013-08-05 16:18:00,86.5,78.0,29.98,WNW,294,1.0,5.0,76,0.01,,---,0.01,VWS V14.01,2013-08-05 20:18:00,
2013-08-05 16:24:00,87.0,77.3,29.98,West,278,4.0,5.0,73,0.01,,---,0.01,VWS V14.01,2013-08-05 20:24:00,
2013-08-05 16:29:00,88.0,77.4,29.98,West,264,4.0,7.0,71,0.01,,---,0.01,VWS V14.01,2013-08-05 20:29:00,
2013-08-05 16:30:00,81.7,75.3,29.99,NW,314,1.0,10.0,81,0.00,,---,0.00,VWS V15.00,2013-08-05 20:30:00,
2013-08-05 16:34:00,88.5,75.7,29.99,NW,304,1.0,5.0,66,0.01,,---,0.01,VWS V14.01,2013-08-05 20:34:00,
2013-08-05 16:40:00,89.0,75.7,29.98,West,262,5.0,5.0,65,0.01,,---,0.01,VWS V14.01,2013-08-05 20:40:00,
2013-08-05 16:45:00,88.4,76.5,29.98,WNW,283,1.0,7.0,68,0.01,,---,0.01,VWS V14.01,2013-08-05 20:45:00,
2013-08-05 16:50:00,87.8,76.4,29.97,NW,307,2.0,5.0,69,0.01,,---,0.01,VWS V14.01,2013-08-05 20:50:00,
2013-08-05 16:56:00,87.3,76.3,29.98,West,277,1.0,8.0,70,0.01,,---,0.01,VWS V14.01,2013-08-05 20:56:00,
2013-08-05 17:00:00,82.2,77.9,30.00,West,281,0.0,4.0,87,0.01,,---,0.01,VWS V15.00,2013-08-05 21:00:00,
2013-08-05 17:01:00,86.7,77.0,29.98,WNW,285,2.0,2.0,73,0.00,,---,0.01,VWS V14.01,2013-08-05 21:01:00,
2013-08-05 17:07:00,86.2,76.9,29.97,NNW,340,5.0,6.0,74,0.00,,---,0.01,VWS V14.01,2013-08-05 21:07:00,
2013-08-05 17:12:00,85.5,76.7,29.97,NW,321,2.0,7.0,75,0.00,,---,0.01,VWS V14.01,2013-08-05 21:12:00,
2013-08-05 17:15:00,86.2,78.2,29.98,South,189,3.0,5.0,77,0.01,,---,0.01,VWS V15.00,2013-08-05 21:15:00,
2013-08-05 17:17:00,85.1,77.1,29.96,West,276,5.0,5.0,77,0.00,,---,0.01,VWS V14.01,2013-08-05 21:17:00,
2013-08-05 17:23:00,84.8,77.2,29.96,West,275,0.0,5.0,78,0.00,,---,0.01,VWS V14.01,2013-08-05 21:23:00,
2013-08-05 17:29:00,84.7,77.1,29.96,NW,319,3.0,5.0,78,0.00,,---,0.01,VWS V14.01,2013-08-05 21:29:00,
2013-08-05 17:30:00,88.4,76.1,29.99,NW,310,1.0,8.0,67,0.01,,---,0.01,VWS V15.00,2013-08-05 21:30:00,
2013-08-05 17:34:00,84.7,77.1,29.97,West,271,4.0,8.0,78,0.00,,---,0.01,VWS V14.01,2013-08-05 21:34:00,
2013-08-05 17:39:00,84.6,77.0,29.96,West,272,0.0,11.0,78,0.00,,---,0.01,VWS V14.01,2013-08-05 21:39:00,
2013-08-05 17:44:00,84.5,76.5,29.96,NNE,22,0.0,11.0,77,0.00,,---,0.01,VWS V14.01,2013-08-05 21:44:00,
2013-08-05 17:45:00,88.4,76.5,29.98,West,260,0.0,7.0,68,0.01,,---,0.01,VWS V15.00,2013-08-05 21:45:00,
2013-08-05 17:50:00,84.2,76.2,29.96,WNW,300,0.0,3.0,77,0.00,,---,0.01,VWS V14.01,2013-08-05 21:50:00,
2013-08-05 17:56:00,84.0,76.0,29.96,West,266,1.0,4.0,77,0.00,,---,0.01,VWS V14.01,2013-08-05 21:56:00,
2013-08-05 18:00:00,86.7,76.6,29.97,West,271,1.0,10.0,72,0.01,,---,0.01,VWS V15.00,2013-08-05 22:00:00,
2013-08-05 18:01:00,83.8,75.8,29.96,NW,316,1.0,8.0,77,0.00,,---,0.01,VWS V14.01,2013-08-05 22:01:00,
2013-08-05 18:06:00,83.6,74.8,29.97,NW,307,1.0,4.0,75,0.00,,---,0.01,VWS V14.01,2013-08-05 22:06:00,
2013-08-05 18:11:00,83.6,74.4,29.97,West,278,3.0,5.0,74,0.00,,---,0.01,VWS V14.01,2013-08-05 22:11:00,
2013-08-05 18:15:00,85.2,77.2,29.97,West,277,1.0,7.0,77,0.00,,---,0.01,VWS V15.00,2013-08-05 22:15:00,
2013-08-05 18:17:00,83.3,74.2,29.97,WNW,297,5.0,5.0,74,0.00,,---,0.01,VWS V14.01,2013-08-05 22:17:00,
2013-08-05 18:23:00,83.0,73.9,29.98,WNW,298,2.0,7.0,74,0.00,,---,0.01,VWS V14.01,2013-08-05 22:23:00,
2013-08-05 18:28:00,82.7,74.0,29.98,NNW,330,1.0,7.0,75,0.00,,---,0.01,VWS V14.01,2013-08-05 22:28:00,
2013-08-05 18:30:00,84.7,77.1,29.96,WSW,250,6.0,8.0,78,0.00,,---,0.01,VWS V15.00,2013-08-05 22:30:00,
2013-08-05 18:34:00,82.4,73.7,29.98,WNW,301,1.0,4.0,75,0.00,,---,0.01,VWS V14.01,2013-08-05 22:34:00,
2013-08-05 18:39:00,82.1,73.8,29.97,NNW,333,1.0,7.0,76,0.00,,---,0.01,VWS V14.01,2013-08-05 22:39:00,
2013-08-05 18:45:00,84.4,76.4,29.96,WSW,240,0.0,11.0,77,0.00,,---,0.01,VWS V15.00,2013-08-05 22:45:00,
2013-08-05 18:46:00,81.8,73.5,29.97,NW,322,1.0,7.0,76,0.00,,---,0.01,VWS V14.01,2013-08-05 22:46:00,
2013-08-05 18:52:00,81.7,73.4,29.97,NW,311,1.0,4.0,76,0.00,,---,0.01,VWS V14.01,2013-08-05 22:52:00,
2013-08-05 18:57:00,81.7,73.4,29.97,WNW,303,0.0,4.0,76,0.00,,---,0.01,VWS V14.01,2013-08-05 22:57:00,
2013-08-05 19:00:00,83.8,75.8,29.96,NW,314,0.0,8.0,77,0.00,,---,0.01,VWS V15.00,2013-08-05 23:00:00,
2013-08-05 19:02:00,81.8,73.5,29.98,WNW,303,0.0,1.0,76,0.00,,---,0.01,VWS V14.01,2013-08-05 23:02:00,
2013-08-05 19:07:00,81.7,73.4,29.98,NW,320,1.0,3.0,76,0.00,,---,0.01,VWS V14.01,2013-08-05 23:07:00,
2013-08-05 19:13:00,81.6,73.3,29.98,North,3,3.0,4.0,76,0.00,,---,0.01,VWS V14.01,2013-08-05 23:13:00,
2013-08-05 19:15:00,83.4,74.2,29.97,WNW,298,1.0,5.0,74,0.00,,---,0.01,VWS V15.00,2013-08-05 23:15:00,
2013-08-05 19:18:00,81.5,72.4,29.98,NW,321,4.0,4.0,74,0.00,,---,0.01,VWS V14.01,2013-08-05 23:18:00,
2013-08-05 19:23:00,81.4,73.1,29.99,NNW,340,2.0,4.0,76,0.00,,---,0.01,VWS V14.01,2013-08-05 23:23:00,
2013-08-05 19:28:00,81.2,73.3,29.99,NE,38,2.0,5.0,77,0.00,,---,0.01,VWS V14.01,2013-08-05 23:28:00,
2013-08-05 19:30:00,82.5,73.8,29.98,NW,310,0.0,7.0,75,0.00,,---,0.01,VWS V15.00,2013-08-05 23:30:00,
2013-08-05 19:33:00,80.7,73.6,30.00,NNE,29,1.0,6.0,79,0.00,,---,0.01,VWS V14.01,2013-08-05 23:33:00,
2013-08-05 19:39:00,80.1,73.4,30.00,NE,56,1.0,6.0,80,0.00,,---,0.01,VWS V14.01,2013-08-05 23:39:00,
2013-08-05 19:44:00,79.6,72.9,30.00,NW,323,1.0,7.0,80,0.00,,---,0.01,VWS V14.01,2013-08-05 23:44:00,
2013-08-05 19:45:00,81.8,73.5,29.97,NW,322,1.0,7.0,76,0.00,,---,0.01,VWS V15.00,2013-08-05 23:45:00,
2013-08-05 19:50:00,79.2,73.6,30.00,NW,316,1.0,4.0,83,0.00,,---,0.01,VWS V14.01,2013-08-05 23:50:00,
2013-08-05 19:55:00,79.1,73.5,30.00,WNW,301,1.0,7.0,83,0.00,,---,0.01,VWS V14.01,2013-08-05 23:55:00,
2013-08-05 20:00:00,78.9,73.3,30.00,West,280,5.0,7.0,83,0.00,,---,0.01,VWS V14.01,2013-08-06 00:00:00,
2013-08-05 20:05:00,78.7,73.5,30.00,NW,317,2.0,4.0,84,0.00,,---,0.01,VWS V14.01,2013-08-06 00:05:00,
2013-08-05 20:11:00,78.5,73.6,30.00,WNW,287,1.0,5.0,85,0.00,,---,0.01,VWS V14.01,2013-08-06 00:11:00,
2013-08-05 20:15:00,81.5,72.8,29.99,NNW,333,3.0,6.0,75,0.00,,---,0.01,VWS V15.00,2013-08-06 00:15:00,
2013-08-05 20:16:00,78.4,73.9,30.00,NNW,334,2.0,5.0,86,0.00,,---,0.01,VWS V14.01,2013-08-06 00:16:00,
2013-08-05 20:22:00,78.2,74.0,30.00,NW,304,2.0,4.0,87,0.00,,---,0.01,VWS V14.01,2013-08-06 00:22:00,
2013-08-05 20:27:00,78.0,74.2,30.00,NW,310,1.0,4.0,88,0.00,,---,0.01,VWS V14.01,2013-08-06 00:27:00,
2013-08-05 20:30:00,80.9,73.4,30.00,NNE,16,3.0,6.0,78,0.00,,---,0.01,VWS V15.00,2013-08-06 00:30:00,
2013-08-05 20:32:00,78.0,74.5,30.00,NW,315,1.0,1.0,89,0.00,,---,0.01,VWS V14.01,2013-08-06 00:32:00,
2013-08-05 20:37:00,77.9,74.7,30.00,NNW,333,0.0,4.0,90,0.00,,---,0.01,VWS V14.01,2013-08-06 00:37:00,
2013-08-05 20:43:00,77.9,74.7,30.01,NNW,341,1.0,4.0,90,0.00,,---,0.01,VWS V14.01,2013-08-06 00:43:00,
2013-08-05 20:45:00,79.4,73.1,30.00,NW,307,1.0,7.0,81,0.00,,---,0.01,VWS V15.00,2013-08-06 00:45:00,
2013-08-05 20:48:00,77.9,74.7,30.00,WNW,302,1.0,2.0,90,0.00,,---,0.01,VWS V14.01,2013-08-06 00:48:00,
2013-08-05 20:53:00,77.9,75.1,30.00,NNW,340,1.0,3.0,91,0.00,,---,0.01,VWS V14.01,2013-08-06 00:53:00,
2013-08-05 20:58:00,77.9,75.1,30.00,NNE,23,0.0,3.0,91,0.00,,---,0.01,VWS V14.01,2013-08-06 00:58:00,
2013-08-05 21:00:00,78.8,73.2,30.00,NW,316,3.0,7.0,83,0.00,,---,0.01,VWS V15.00,2013-08-06 01:00:00,
2013-08-05 21:03:00,77.9,75.1,30.01,NNE,23,2.0,3.0,91,0.00,,---,0.01,VWS V14.01,2013-08-06 01:03:00,
2013-08-05 21:08:00,77.9,75.1,30.01,NNW,344,1.0,6.0,91,0.00,,---,0.01,VWS V14.01,2013-08-06 01:08:00,
2013-08-05 21:14:00,77.8,75.0,30.00,NNW,335,0.0,6.0,91,0.00,,---,0.01,VWS V14.01,2013-08-06 01:14:00,
2013-08-05 21:15:00,78.4,73.9,30.00,NNW,334,2.0,5.0,86,0.00,,---,0.01,VWS V15.00,2013-08-06 01:15:00,
2013-08-05 21:20:00,77.7,74.9,30.00,WNW,302,1.0,3.0,91,0.00,,---,0.01,VWS V14.01,2013-08-06 01:20:00,
2013-08-05 21:25:00,77.7,74.9,29.99,WNW,292,0.0,3.0,91,0.00,,---,0.01,VWS V14.01,2013-08-06 01:25:00,
2013-08-05 21:30:00,78.0,74.5,30.00,West,264,1.0,4.0,89,0.00,,---,0.01,VWS V15.00,2013-08-06 01:30:00,
2013-08-05 21:31:00,77.7,75.2,29.99,WNW,293,0.0,3.0,92,0.00,,---,0.01,VWS V14.01,2013-08-06 01:31:00,
2013-08-05 21:36:00,77.7,75.2,29.99,WNW,293,0.0,1.0,92,0.00,,---,0.01,VWS V14.01,2013-08-06 01:36:00,
2013-08-05 21:41:00,77.6,75.1,29.99,WNW,293,0.0,1.0,92,0.00,,---,0.01,VWS V14.01,2013-08-06 01:41:00,
2013-08-05 21:45:00,77.9,74.7,30.01,NW,319,1.0,4.0,90,0.00,,---,0.01,VWS V15.00,2013-08-06 01:45:00,
2013-08-05 21:46:00,77.7,74.9,29.99,NNE,15,0.0,0.0,91,0.00,,---,0.01,VWS V14.01,2013-08-06 01:46:00,
2013-08-05 21:51:00,77.7,74.9,29.99,NW,315,0.0,2.0,91,0.00,,---,0.01,VWS V14.01,2013-08-06 01:51:00,
2013-08-05 21:56:00,77.7,74.9,29.99,NNE,18,1.0,2.0,91,0.00,,---,0.01,VWS V14.01,2013-08-06 01:56:00,
2013-08-05 22:00:00,77.9,75.1,30.00,NNW,342,2.0,4.0,91,0.00,,---,0.01,VWS V15.00,2013-08-06 02:00:00,
2013-08-05 22:01:00,77.7,74.9,29.99,NNE,18,0.0,1.0,91,0.00,,---,0.01,VWS V14.01,2013-08-06 02:01:00,
2013-08-05 22:07:00,77.7,75.2,29.99,NNE,14,0.0,2.0,92,0.00,,---,0.01,VWS V14.01,2013-08-06 02:07:00,
2013-08-05 22:12:00,77.7,75.2,29.99,NNE,13,0.0,2.0,92,0.00,,---,0.01,VWS V14.01,2013-08-06 02:12:00,
2013-08-05 22:15:00,77.8,75.0,30.00,NW,313,1.0,6.0,91,0.00,,---,0.01,VWS V15.00,2013-08-06 02:15:00,
2013-08-05 22:17:00,77.7,75.2,29.99,NNE,14,0.0,0.0,92,0.00,,---,0.01,VWS V14.01,2013-08-06 02:17:00,
2013-08-05 22:22:00,77.6,75.1,29.99,NNE,13,0.0,0.0,92,0.00,,---,0.01,VWS V14.01,2013-08-06 02:22:00,
2013-08-05 22:27:00,77.5,75.0,29.99,NNE,13,0.0,0.0,92,0.00,,---,0.01,VWS V14.01,2013-08-06 02:27:00,
2013-08-05 22:30:00,77.7,75.2,29.99,WNW,293,0.0,3.0,92,0.00,,---,0.01,VWS V15.00,2013-08-06 02:30:00,
2013-08-05 22:33:00,77.5,75.3,29.99,NNE,14,0.0,0.0,93,0.00,,---,0.01,VWS V14.01,2013-08-06 02:33:00,
2013-08-05 22:38:00,77.4,75.2,29.99,NNE,13,0.0,1.0,93,0.00,,---,0.01,VWS V14.01,2013-08-06 02:38:00,
2013-08-05 22:43:00,77.4,75.2,30.00,NNE,14,0.0,1.0,93,0.00,,---,0.01,VWS V14.01,2013-08-06 02:43:00,
2013-08-05 22:45:00,77.7,74.9,29.99,NNE,15,0.0,2.0,91,0.00,,---,0.01,VWS V15.00,2013-08-06 02:45:00,
2013-08-05 22:49:00,77.4,75.2,29.99,NNE,14,0.0,1.0,93,0.00,,---,0.01,VWS V14.01,2013-08-06 02:49:00,
2013-08-05 22:55:00,77.4,75.2,29.99,NNE,14,0.0,1.0,93,0.00,,---,0.01,VWS V14.01,2013-08-06 02:55:00,
2013-08-05 23:00:00,77.3,75.1,29.99,NNE,13,0.0,1.0,93,0.00,,---,0.01,VWS V14.01,2013-08-06 03:00:00,
2013-08-05 23:05:00,77.4,75.2,30.00,NNE,13,0.0,0.0,93,0.00,,---,0.01,VWS V14.01,2013-08-06 03:05:00,
2013-08-05 23:10:00,77.4,75.2,30.00,NNE,13,0.0,0.0,93,0.00,,---,0.01,VWS V14.01,2013-08-06 03:10:00,
2013-08-05 23:15:00,77.3,75.1,30.00,NNE,13,0.0,0.0,93,0.00,,---,0.01,VWS V14.01,2013-08-06 03:15:00,
2013-08-05 23:21:00,77.2,75.0,30.00,NNE,13,0.0,0.0,93,0.00,,---,0.01,VWS V14.01,2013-08-06 03:21:00,
2013-08-05 23:27:00,77.3,75.4,30.01,NNE,14,0.0,1.0,94,0.00,,---,0.01,VWS V14.01,2013-08-06 03:27:00,
2013-08-05 23:30:00,77.5,75.6,29.99,NNE,14,0.0,1.0,94,0.00,,---,0.01,VWS V15.00,2013-08-06 03:30:00,
2013-08-05 23:32:00,77.3,75.4,30.01,NNE,13,0.0,1.0,94,0.00,,---,0.01,VWS V14.01,2013-08-06 03:32:00,
2013-08-05 23:37:00,77.3,75.1,30.00,NNE,14,1.0,1.0,93,0.00,,---,0.01,VWS V14.01,2013-08-06 03:37:00,
2013-08-05 23:42:00,77.3,75.4,30.00,NNE,14,0.0,1.0,94,0.00,,---,0.01,VWS V14.01,2013-08-06 03:42:00,
2013-08-05 23:45:00,77.4,75.2,29.99,NNE,14,1.0,1.0,93,0.00,,---,0.01,VWS V15.00,2013-08-06 03:45:00,
2013-08-05 23:47:00,77.3,75.4,30.00,NNE,14,0.0,1.0,94,0.00,,---,0.01,VWS V14.01,2013-08-06 03:47:00,
2013-08-05 23:52:00,77.3,75.4,30.00,North,11,0.0,1.0,94,0.00,,---,0.01,VWS V14.01,2013-08-06 03:52:00,
2013-08-05 23:57:00,77.3,75.4,30.00,North,11,0.0,1.0,94,0.00,,---,0.01,VWS V14.01,2013-08-06 03:57:00,